project_name,platform_name,Date_(yyyymmdd),Time_(hh24miss),beacon_ID,latitude_DD,longitude_DD,altitude_m,altitude_result_value_type,speed_m_s,speed_result_value_type,direction_degrees,direction_result_value_type,fix,sat
BaySys,Amundsen,2008-03-18,17:48:06,300034012817320,71.4103,-120.5725,-1.6505,Actual,,Calculated,145.0900,Calculated,1,6
BaySys,Amundsen,2008-03-18,19:47:54,300034012817320,71.4102,-120.5725,3.9112,Actual,,Calculated,92.3800,Calculated,1,5
BaySys,Amundsen,2008-03-18,21:47:37,300034012817320,71.4102,-120.5724,1.6678,Actual,,Calculated,267.1900,Calculated,1,7
BaySys,Amundsen,2008-03-18,23:47:46,300034012817320,71.4103,-120.5724,12.6076,Actual,,Calculated,196.3800,Calculated,1,5
BaySys,Amundsen,2008-03-19,01:48:06,300034012817320,71.4103,-120.5725,13.6364,Actual,,Calculated,136.5500,Calculated,1,8
BaySys,Amundsen,2008-03-19,03:47:39,300034012817320,71.4103,-120.5725,50.3946,Actual,,Calculated,172.1500,Calculated,1,9
BaySys,Amundsen,2008-03-19,07:57:55,300034012817320,71.4099,-120.5727,-111.5560,Actual,,Calculated,339.5800,Calculated,1,10
BaySys,Amundsen,2008-03-19,16:07:59,300034012817320,71.4102,-120.5724,-4.2656,Actual,,Calculated,21.1600,Calculated,1,11
BaySys,Amundsen,2008-03-19,18:07:24,300034012817320,71.4102,-120.5724,-5.9808,Actual,,Calculated,0.8700,Calculated,1,10
BaySys,Amundsen,2008-03-19,20:08:05,300034012817320,71.4102,-120.5724,3.7154,Actual,,Calculated,103.7000,Calculated,1,12
BaySys,Amundsen,2008-03-19,22:07:30,300034012817320,71.4102,-120.5724,-9.3290,Actual,,Calculated,311.0300,Calculated,1,8
BaySys,Amundsen,2008-03-20,00:07:29,300034012817320,71.4102,-120.5724,-9.1741,Actual,,Calculated,4.3500,Calculated,1,9
BaySys,Amundsen,2008-03-20,02:08:05,300034012817320,71.4102,-120.5724,-3.3011,Actual,,Calculated,345.1200,Calculated,1,9
BaySys,Amundsen,2008-03-20,04:07:37,300034012817320,71.4102,-120.5724,7.5300,Actual,,Calculated,39.8200,Calculated,1,8
BaySys,Amundsen,2008-03-20,06:07:39,300034012817320,71.4103,-120.5724,26.3220,Actual,,Calculated,4.7400,Calculated,1,10
BaySys,Amundsen,2008-03-20,08:08:05,300034012817320,71.4102,-120.5725,-6.8747,Actual,,Calculated,273.9300,Calculated,1,7
BaySys,Amundsen,2008-03-20,10:08:23,300034012817320,71.4102,-120.5724,-5.0076,Actual,,Calculated,202.6200,Calculated,1,9
BaySys,Amundsen,2008-03-20,12:07:55,300034012817320,71.4102,-120.5724,5.4893,Actual,,Calculated,216.6400,Calculated,1,9
BaySys,Amundsen,2008-03-20,14:08:29,300034012817320,71.4102,-120.5725,-5.0500,Actual,,Calculated,287.3300,Calculated,1,10
BaySys,Amundsen,2008-03-20,16:08:23,300034012817320,71.4102,-120.5724,-8.7283,Actual,,Calculated,107.6400,Calculated,1,12
BaySys,Amundsen,2008-03-20,18:07:59,300034012817320,71.4102,-120.5725,-6.5806,Actual,,Calculated,149.6100,Calculated,1,11
BaySys,Amundsen,2008-03-20,20:08:29,300034012817320,71.4102,-120.5725,-5.3554,Actual,,Calculated,71.1200,Calculated,1,9
BaySys,Amundsen,2008-03-20,22:08:23,300034012817320,71.4102,-120.5723,3.3394,Actual,,Calculated,336.4600,Calculated,1,9
BaySys,Amundsen,2008-03-21,00:08:02,300034012817320,71.4102,-120.5725,-5.5255,Actual,,Calculated,107.6500,Calculated,1,10
BaySys,Amundsen,2008-03-21,02:08:35,300034012817320,71.4102,-120.5725,-4.9549,Actual,,Calculated,107.8400,Calculated,1,10
BaySys,Amundsen,2008-03-21,04:17:59,300034012817320,71.4102,-120.5687,-20.4386,Actual,,Calculated,147.7200,Calculated,1,8
BaySys,Amundsen,2008-03-21,08:28:23,300034012817320,71.4102,-120.5726,-3.8660,Actual,,Calculated,40.6200,Calculated,1,10
BaySys,Amundsen,2008-03-21,16:28:29,300034012817320,71.4103,-120.5728,-4.9607,Actual,,Calculated,288.8000,Calculated,1,11
BaySys,Amundsen,2008-03-21,18:27:52,300034012817320,71.4102,-120.5728,-20.7668,Actual,,Calculated,44.5800,Calculated,1,11
BaySys,Amundsen,2008-03-21,20:28:23,300034012817320,71.4103,-120.5730,-7.7353,Actual,,Calculated,278.6500,Calculated,1,11
BaySys,Amundsen,2008-03-21,22:27:56,300034012817320,71.4103,-120.5728,-8.3081,Actual,,Calculated,6.4700,Calculated,1,10
BaySys,Amundsen,2008-03-22,00:27:51,300034012817320,71.4104,-120.5728,26.1593,Actual,,Calculated,323.5800,Calculated,1,10
BaySys,Amundsen,2008-03-22,02:28:12,300034012817320,71.4103,-120.5728,4.1867,Actual,,Calculated,163.4800,Calculated,1,9
BaySys,Amundsen,2008-03-22,04:28:29,300034012817320,71.4103,-120.5728,0.4825,Actual,,Calculated,355.2800,Calculated,1,12
BaySys,Amundsen,2008-03-22,12:37:56,300034012817320,71.4103,-120.5727,-4.9286,Actual,,Calculated,340.5000,Calculated,1,10
BaySys,Amundsen,2008-03-22,14:47:38,300034012817320,71.4104,-120.5731,66.7562,Actual,,Calculated,286.8600,Calculated,1,10
BaySys,Amundsen,2008-03-22,16:47:41,300034012817320,71.4103,-120.5725,-26.3070,Actual,,Calculated,226.1200,Calculated,1,7
BaySys,Amundsen,2008-03-22,18:47:54,300034012817320,71.4103,-120.5728,-0.6417,Actual,,Calculated,86.4900,Calculated,1,9
BaySys,Amundsen,2008-03-22,20:48:23,300034012817320,71.4103,-120.5727,-18.4561,Actual,,Calculated,12.3700,Calculated,1,11
BaySys,Amundsen,2008-03-22,22:47:55,300034012817320,71.4103,-120.5727,-4.0814,Actual,,Calculated,16.2100,Calculated,1,10
BaySys,Amundsen,2008-03-23,00:47:50,300034012817320,71.4103,-120.5729,22.8421,Actual,,Calculated,127.8600,Calculated,1,9
BaySys,Amundsen,2008-03-23,02:47:54,300034012817320,71.4104,-120.5729,37.8823,Actual,,Calculated,186.0600,Calculated,1,11
BaySys,Amundsen,2008-03-23,04:47:51,300034012817320,71.4103,-120.5729,11.5390,Actual,,Calculated,140.0800,Calculated,1,12
BaySys,Amundsen,2008-03-23,12:57:48,300034012817320,71.4103,-120.5728,-2.6177,Actual,,Calculated,294.3700,Calculated,1,12
BaySys,Amundsen,2008-03-23,14:57:42,300034012817320,71.4103,-120.5728,20.0812,Actual,,Calculated,34.3600,Calculated,1,13
BaySys,Amundsen,2008-03-23,16:58:05,300034012817320,71.4103,-120.5728,-8.2799,Actual,,Calculated,161.8000,Calculated,1,6
BaySys,Amundsen,2008-03-23,18:58:23,300034012817320,71.4103,-120.5728,-2.6511,Actual,,Calculated,170.4800,Calculated,1,12
BaySys,Amundsen,2008-03-23,20:58:00,300034012817320,71.4103,-120.5728,-7.3560,Actual,,Calculated,297.0600,Calculated,1,8
BaySys,Amundsen,2008-03-23,22:58:29,300034012817320,71.4103,-120.5728,-9.1162,Actual,,Calculated,70.9600,Calculated,1,10
BaySys,Amundsen,2008-03-24,00:58:13,300034012817320,71.4103,-120.5728,-8.9863,Actual,,Calculated,129.0500,Calculated,1,5
BaySys,Amundsen,2008-03-24,02:58:12,300034012817320,71.4103,-120.5728,-4.9566,Actual,,Calculated,223.1300,Calculated,1,11
BaySys,Amundsen,2008-03-24,04:57:59,300034012817320,71.4103,-120.5731,-13.1426,Actual,,Calculated,173.6200,Calculated,1,9
BaySys,Amundsen,2008-03-24,06:58:29,300034012817320,71.4103,-120.5728,-5.7894,Actual,,Calculated,147.2600,Calculated,1,11
BaySys,Amundsen,2008-03-24,08:58:35,300034012817320,71.4103,-120.5728,-1.3139,Actual,,Calculated,40.8600,Calculated,1,5
BaySys,Amundsen,2008-03-24,10:58:41,300034012817320,71.4103,-120.5727,4.7210,Actual,,Calculated,247.0300,Calculated,1,9
BaySys,Amundsen,2008-03-24,12:58:28,300034012817320,71.4103,-120.5728,0.6186,Actual,,Calculated,64.2100,Calculated,1,9
BaySys,Amundsen,2008-03-24,14:59:05,300034012817320,71.4103,-120.5728,6.8629,Actual,,Calculated,23.5700,Calculated,1,11
BaySys,Amundsen,2008-03-24,16:59:05,300034012817320,71.4103,-120.5728,-2.1324,Actual,,Calculated,186.4900,Calculated,1,14
BaySys,Amundsen,2008-03-24,18:58:49,300034012817320,71.4103,-120.5727,4.8225,Actual,,Calculated,29.9100,Calculated,1,5
BaySys,Amundsen,2008-03-24,20:59:05,300034012817320,71.4103,-120.5728,-9.6023,Actual,,Calculated,226.1700,Calculated,1,7
BaySys,Amundsen,2008-03-24,22:59:02,300034012817320,71.4102,-120.5728,-11.1682,Actual,,Calculated,4.3400,Calculated,1,11
BaySys,Amundsen,2008-03-25,00:58:41,300034012817320,71.4103,-120.5731,17.5934,Actual,,Calculated,320.0800,Calculated,1,9
BaySys,Amundsen,2008-03-25,02:59:05,300034012817320,71.4103,-120.5729,1.6934,Actual,,Calculated,45.2100,Calculated,1,7
BaySys,Amundsen,2008-03-25,15:00:42,300034012817320,71.4102,-120.5728,9.6672,Actual,,Calculated,280.6200,Calculated,1,6
BaySys,Amundsen,2008-03-25,17:00:39,300034012817320,71.4100,-120.5729,6.7151,Actual,,Calculated,33.9400,Calculated,1,13
BaySys,Amundsen,2008-03-25,19:00:27,300034012817320,71.4102,-120.5728,-0.6845,Actual,,Calculated,298.5800,Calculated,1,12
BaySys,Amundsen,2008-03-25,21:00:54,300034012817320,71.4102,-120.5728,-2.6214,Actual,,Calculated,242.6600,Calculated,1,9
BaySys,Amundsen,2008-03-25,23:00:33,300034012817320,71.4102,-120.5727,-9.5607,Actual,,Calculated,47.3400,Calculated,1,11
BaySys,Amundsen,2008-03-26,01:00:30,300034012817320,71.4102,-120.5729,30.0994,Actual,,Calculated,358.1900,Calculated,1,11
BaySys,Amundsen,2008-03-26,03:01:05,300034012817320,71.4102,-120.5727,5.8068,Actual,,Calculated,274.5500,Calculated,1,10
BaySys,Amundsen,2008-03-26,05:00:46,300034012817320,71.4102,-120.5728,-11.2650,Actual,,Calculated,3.5700,Calculated,1,11
BaySys,Amundsen,2008-03-26,07:01:00,300034012817320,71.4102,-120.5728,-12.1974,Actual,,Calculated,195.2900,Calculated,1,8
BaySys,Amundsen,2008-03-26,09:00:46,300034012817320,71.4102,-120.5726,-0.3707,Actual,,Calculated,35.0600,Calculated,1,10
BaySys,Amundsen,2008-03-26,11:00:53,300034012817320,71.4103,-120.5726,-2.6183,Actual,,Calculated,55.5900,Calculated,1,9
BaySys,Amundsen,2008-03-26,13:00:43,300034012817320,71.4102,-120.5724,1.2819,Actual,,Calculated,57.5800,Calculated,1,9
BaySys,Amundsen,2008-03-26,15:00:43,300034012817320,71.4103,-120.5724,3.7788,Actual,,Calculated,20.2500,Calculated,1,9
BaySys,Amundsen,2008-03-26,17:00:56,300034012817320,71.4102,-120.5725,-3.8535,Actual,,Calculated,238.5000,Calculated,1,9
BaySys,Amundsen,2008-03-26,19:01:06,300034012817320,71.4102,-120.5724,-0.5956,Actual,,Calculated,324.4000,Calculated,1,7
BaySys,Amundsen,2008-03-26,21:00:53,300034012817320,71.4103,-120.5725,-3.9659,Actual,,Calculated,358.8200,Calculated,1,9
BaySys,Amundsen,2008-03-26,23:01:03,300034012817320,71.4102,-120.5725,-10.9002,Actual,,Calculated,191.0600,Calculated,1,11
BaySys,Amundsen,2008-03-27,01:00:55,300034012817320,71.4103,-120.5725,14.7335,Actual,,Calculated,165.6700,Calculated,1,10
BaySys,Amundsen,2008-03-27,03:00:56,300034012817320,71.4103,-120.5726,29.7241,Actual,,Calculated,153.9400,Calculated,1,10
BaySys,Amundsen,2008-03-27,05:00:59,300034012817320,71.4103,-120.5726,11.8481,Actual,,Calculated,119.1500,Calculated,1,10
BaySys,Amundsen,2008-03-27,07:01:24,300034012817320,71.4102,-120.5726,-15.0457,Actual,,Calculated,204.0100,Calculated,1,9
BaySys,Amundsen,2008-03-27,09:01:04,300034012817320,71.4103,-120.5725,-1.6804,Actual,,Calculated,68.8100,Calculated,1,8
BaySys,Amundsen,2008-03-27,11:01:35,300034012817320,71.4103,-120.5724,0.1875,Actual,,Calculated,84.5000,Calculated,1,9
BaySys,Amundsen,2008-03-27,13:01:25,300034012817320,71.4102,-120.5724,-1.2011,Actual,,Calculated,308.3600,Calculated,1,9
BaySys,Amundsen,2008-03-27,15:01:10,300034012817320,71.4103,-120.5725,-4.1744,Actual,,Calculated,283.4700,Calculated,1,12
BaySys,Amundsen,2008-03-27,17:01:11,300034012817320,71.4102,-120.5724,-24.0751,Actual,,Calculated,49.6300,Calculated,1,8
BaySys,Amundsen,2008-03-27,19:01:12,300034012817320,71.4102,-120.5725,-3.2111,Actual,,Calculated,46.9000,Calculated,1,8
BaySys,Amundsen,2008-03-27,21:01:12,300034012817320,71.4102,-120.5725,-5.8095,Actual,,Calculated,23.0900,Calculated,1,9
BaySys,Amundsen,2008-03-27,23:01:36,300034012817320,71.4102,-120.5725,-9.5943,Actual,,Calculated,329.7800,Calculated,1,8
BaySys,Amundsen,2008-03-28,01:01:21,300034012817320,71.4102,-120.5726,-6.6928,Actual,,Calculated,353.0500,Calculated,1,11
BaySys,Amundsen,2008-03-28,03:01:22,300034012817320,71.4103,-120.5726,24.4286,Actual,,Calculated,166.1800,Calculated,1,11
BaySys,Amundsen,2008-03-28,05:01:48,300034012817320,71.4103,-120.5725,0.4672,Actual,,Calculated,332.7100,Calculated,1,11
BaySys,Amundsen,2008-03-28,07:01:36,300034012817320,71.4102,-120.5725,-6.6759,Actual,,Calculated,45.7800,Calculated,1,9
BaySys,Amundsen,2008-03-28,09:01:39,300034012817320,71.4103,-120.5725,2.4346,Actual,,Calculated,321.8900,Calculated,1,11
BaySys,Amundsen,2008-03-28,11:01:42,300034012817320,71.4103,-120.5725,0.4416,Actual,,Calculated,159.5000,Calculated,1,9
BaySys,Amundsen,2008-03-28,13:01:39,300034012817320,71.4102,-120.5725,-8.1043,Actual,,Calculated,338.4300,Calculated,1,7
BaySys,Amundsen,2008-03-28,15:01:37,300034012817320,71.4103,-120.5724,-5.0862,Actual,,Calculated,105.5900,Calculated,1,14
BaySys,Amundsen,2008-03-28,17:01:37,300034012817320,71.4102,-120.5724,-19.9071,Actual,,Calculated,136.7400,Calculated,1,12
BaySys,Amundsen,2008-03-28,19:02:05,300034012817320,71.4102,-120.5725,-1.7286,Actual,,Calculated,280.3800,Calculated,1,11
BaySys,Amundsen,2008-03-28,21:02:05,300034012817320,71.4102,-120.5725,-6.0902,Actual,,Calculated,151.9400,Calculated,1,9
BaySys,Amundsen,2008-03-28,23:01:41,300034012817320,71.4103,-120.5725,-8.3085,Actual,,Calculated,252.2200,Calculated,1,9
BaySys,Amundsen,2008-03-29,01:02:10,300034012817320,71.4102,-120.5724,-3.6105,Actual,,Calculated,268.6700,Calculated,1,10
BaySys,Amundsen,2008-03-29,03:01:47,300034012817320,71.4103,-120.5726,26.9553,Actual,,Calculated,62.4100,Calculated,1,13
BaySys,Amundsen,2008-03-29,05:01:48,300034012817320,71.4102,-120.5725,-3.2053,Actual,,Calculated,112.5200,Calculated,1,9
BaySys,Amundsen,2008-03-29,07:01:55,300034012817320,71.4103,-120.5725,-2.9121,Actual,,Calculated,94.7300,Calculated,1,11
BaySys,Amundsen,2008-03-29,09:01:59,300034012817320,71.4103,-120.5725,0.9421,Actual,,Calculated,8.7400,Calculated,1,11
BaySys,Amundsen,2008-03-29,09:01:59,300034012817320,71.4103,-120.5725,0.9421,Actual,,Calculated,8.7400,Calculated,1,11
BaySys,Amundsen,2008-03-29,11:02:24,300034012817320,71.4102,-120.5725,-0.0583,Actual,,Calculated,332.1200,Calculated,1,12
BaySys,Amundsen,2008-03-29,13:02:16,300034012817320,71.4102,-120.5724,-7.8797,Actual,,Calculated,349.9100,Calculated,1,8
BaySys,Amundsen,2008-03-29,15:02:18,300034012817320,71.4100,-120.5716,12.8102,Actual,,Calculated,34.6300,Calculated,1,14
BaySys,Amundsen,2008-03-29,17:02:03,300034012817320,71.4102,-120.5725,-5.5423,Actual,,Calculated,40.6800,Calculated,1,10
BaySys,Amundsen,2008-03-29,19:02:35,300034012817320,71.4102,-120.5724,0.0675,Actual,,Calculated,335.8700,Calculated,1,9
BaySys,Amundsen,2008-03-29,21:02:09,300034012817320,71.4103,-120.5724,-6.2834,Actual,,Calculated,102.2300,Calculated,1,7
BaySys,Amundsen,2008-03-29,23:02:12,300034012817320,71.4102,-120.5725,-9.0318,Actual,,Calculated,3.2500,Calculated,1,10
BaySys,Amundsen,2008-03-30,01:02:19,300034012817320,71.4102,-120.5726,-7.4470,Actual,,Calculated,317.3600,Calculated,1,9
BaySys,Amundsen,2008-03-30,03:02:14,300034012817320,71.4103,-120.5728,99.8801,Actual,,Calculated,217.3800,Calculated,1,11
BaySys,Amundsen,2008-03-30,05:02:09,300034012817320,71.4102,-120.5726,4.4287,Actual,,Calculated,56.6700,Calculated,1,11
BaySys,Amundsen,2008-03-30,07:02:25,300034012817320,71.4102,-120.5727,5.5469,Actual,,Calculated,334.4000,Calculated,1,6
BaySys,Amundsen,2008-03-30,09:02:36,300034012817320,71.4102,-120.5725,10.0800,Actual,,Calculated,164.1600,Calculated,1,9
BaySys,Amundsen,2008-03-30,11:02:26,300034012817320,71.4103,-120.5725,-0.2789,Actual,,Calculated,199.2800,Calculated,1,11
BaySys,Amundsen,2008-03-30,13:02:25,300034012817320,71.4102,-120.5725,2.8514,Actual,,Calculated,320.2800,Calculated,1,6
BaySys,Amundsen,2008-03-30,15:02:33,300034012817320,71.4102,-120.5724,-8.6323,Actual,,Calculated,114.5000,Calculated,1,14
BaySys,Amundsen,2008-03-30,17:02:31,300034012817320,71.4102,-120.5725,-10.2549,Actual,,Calculated,18.8600,Calculated,1,10
BaySys,Amundsen,2008-03-30,19:02:59,300034012817320,71.4102,-120.5724,2.9670,Actual,,Calculated,335.1000,Calculated,1,11
BaySys,Amundsen,2008-03-30,21:03:05,300034012817320,71.4102,-120.5725,-5.1627,Actual,,Calculated,343.0200,Calculated,1,8
BaySys,Amundsen,2008-03-30,23:02:36,300034012817320,71.4102,-120.5725,-15.9423,Actual,,Calculated,82.0700,Calculated,1,11
BaySys,Amundsen,2008-03-31,01:02:54,300034012817320,71.4104,-120.5726,18.1826,Actual,,Calculated,147.1900,Calculated,1,10
BaySys,Amundsen,2008-03-31,03:02:39,300034012817320,71.4103,-120.5726,17.5444,Actual,,Calculated,87.4000,Calculated,1,12
BaySys,Amundsen,2008-03-31,05:02:34,300034012817320,71.4099,-120.5726,-46.4948,Actual,,Calculated,210.7300,Calculated,1,8
BaySys,Amundsen,2008-03-31,07:02:54,300034012817320,71.4102,-120.5725,-10.0423,Actual,,Calculated,32.3300,Calculated,1,10
BaySys,Amundsen,2008-03-31,09:02:39,300034012817320,71.4102,-120.5725,0.4219,Actual,,Calculated,53.9500,Calculated,1,8
BaySys,Amundsen,2008-03-31,11:02:41,300034012817320,71.4102,-120.5728,-151.0585,Actual,,Calculated,201.2000,Calculated,1,8
BaySys,Amundsen,2008-03-31,13:03:18,300034012817320,71.4103,-120.5725,14.5537,Actual,,Calculated,117.2500,Calculated,1,9
BaySys,Amundsen,2008-03-31,15:02:53,300034012817320,71.4103,-120.5726,-1.1167,Actual,,Calculated,216.8800,Calculated,1,10
BaySys,Amundsen,2008-03-31,17:02:45,300034012817320,71.4102,-120.5726,2.9214,Actual,,Calculated,220.3700,Calculated,1,12
BaySys,Amundsen,2008-03-31,19:03:35,300034012817320,71.4102,-120.5726,3.7611,Actual,,Calculated,342.1800,Calculated,1,10
BaySys,Amundsen,2008-03-31,21:03:20,300034012817320,71.4102,-120.5726,-1.5493,Actual,,Calculated,31.5000,Calculated,1,8
BaySys,Amundsen,2008-03-31,23:02:53,300034012817320,71.4103,-120.5727,-10.3487,Actual,,Calculated,202.6500,Calculated,1,11
BaySys,Amundsen,2008-04-01,01:03:35,300034012817320,71.4103,-120.5726,-2.7815,Actual,,Calculated,212.2800,Calculated,1,11
BaySys,Amundsen,2008-04-01,03:02:59,300034012817320,71.4102,-120.5727,17.9680,Actual,,Calculated,130.7000,Calculated,1,10
BaySys,Amundsen,2008-04-01,05:02:59,300034012817320,71.4103,-120.5727,16.4637,Actual,,Calculated,347.4300,Calculated,1,10
BaySys,Amundsen,2008-04-01,07:03:24,300034012817320,71.4103,-120.5719,17.9880,Actual,,Calculated,151.7200,Calculated,1,8
BaySys,Amundsen,2008-04-01,09:03:06,300034012817320,71.4102,-120.5726,0.2794,Actual,,Calculated,229.9300,Calculated,1,10
BaySys,Amundsen,2008-04-01,11:03:06,300034012817320,71.4103,-120.5726,0.7138,Actual,,Calculated,224.0700,Calculated,1,10
BaySys,Amundsen,2008-04-01,13:03:53,300034012817320,71.4103,-120.5726,12.0744,Actual,,Calculated,285.9100,Calculated,1,9
BaySys,Amundsen,2008-04-01,15:03:14,300034012817320,71.4103,-120.5727,-1.3078,Actual,,Calculated,267.6500,Calculated,1,12
BaySys,Amundsen,2008-04-01,17:03:18,300034012817320,71.4102,-120.5727,-3.2420,Actual,,Calculated,168.1500,Calculated,1,12
BaySys,Amundsen,2008-04-01,19:03:25,300034012817320,71.4102,-120.5725,-7.0182,Actual,,Calculated,341.1900,Calculated,1,5
BaySys,Amundsen,2008-04-01,21:03:19,300034012817320,71.4102,-120.5726,-2.8707,Actual,,Calculated,95.1600,Calculated,1,9
BaySys,Amundsen,2008-04-01,23:03:19,300034012817320,71.4102,-120.5726,-11.6155,Actual,,Calculated,131.3200,Calculated,1,11
BaySys,Amundsen,2008-04-02,03:03:26,300034012817320,71.4102,-120.5728,13.6556,Actual,,Calculated,81.3600,Calculated,1,10
BaySys,Amundsen,2008-04-02,05:03:59,300034012817320,71.4102,-120.5724,9.2260,Actual,,Calculated,271.3100,Calculated,1,13
BaySys,Amundsen,2008-04-02,07:03:31,300034012817320,71.4103,-120.5730,1.5503,Actual,,Calculated,342.0300,Calculated,1,11
BaySys,Amundsen,2008-04-02,09:04:05,300034012817320,71.4102,-120.5726,-6.7180,Actual,,Calculated,234.0200,Calculated,1,8
BaySys,Amundsen,2008-04-02,15:03:36,300034012817320,71.4103,-120.5727,-0.6648,Actual,,Calculated,329.2400,Calculated,1,12
BaySys,Amundsen,2008-04-02,17:03:37,300034012817320,71.4102,-120.5727,-6.0626,Actual,,Calculated,197.9600,Calculated,1,11
BaySys,Amundsen,2008-04-02,19:04:05,300034012817320,71.4103,-120.5726,-4.9141,Actual,,Calculated,297.3300,Calculated,1,7
BaySys,Amundsen,2008-04-02,21:03:52,300034012817320,71.4102,-120.5726,-8.0916,Actual,,Calculated,136.4400,Calculated,1,7
BaySys,Amundsen,2008-04-02,23:03:51,300034012817320,71.4102,-120.5727,-5.5539,Actual,,Calculated,161.5300,Calculated,1,8
BaySys,Amundsen,2008-04-03,01:03:48,300034012817320,71.4105,-120.5733,74.0213,Actual,,Calculated,191.7600,Calculated,1,9
BaySys,Amundsen,2008-04-03,03:03:54,300034012817320,71.4103,-120.5726,11.7440,Actual,,Calculated,46.3500,Calculated,1,8
BaySys,Amundsen,2008-04-03,05:04:18,300034012817320,71.4103,-120.5724,11.5778,Actual,,Calculated,263.8400,Calculated,1,12
BaySys,Amundsen,2008-04-03,07:03:59,300034012817320,71.4103,-120.5727,-7.3564,Actual,,Calculated,11.2900,Calculated,1,10
BaySys,Amundsen,2008-04-03,09:04:29,300034012817320,71.4102,-120.5727,0.3252,Actual,,Calculated,48.1100,Calculated,1,10
BaySys,Amundsen,2008-04-03,11:03:59,300034012817320,71.4103,-120.5726,6.0746,Actual,,Calculated,356.2200,Calculated,1,10
BaySys,Amundsen,2008-04-03,13:04:36,300034012817320,71.4102,-120.5727,-4.9891,Actual,,Calculated,309.7900,Calculated,1,10
BaySys,Amundsen,2008-04-03,15:04:05,300034012817320,71.4103,-120.5727,-1.9357,Actual,,Calculated,108.1400,Calculated,1,12
BaySys,Amundsen,2008-04-03,17:04:10,300034012817320,71.4102,-120.5726,-1.2433,Actual,,Calculated,238.2300,Calculated,1,10
BaySys,Amundsen,2008-04-03,19:04:35,300034012817320,71.4103,-120.5726,-4.8508,Actual,,Calculated,262.3000,Calculated,1,8
BaySys,Amundsen,2008-04-03,21:04:53,300034012817320,71.4102,-120.5727,-10.9607,Actual,,Calculated,0.6600,Calculated,1,9
BaySys,Amundsen,2008-04-03,23:04:15,300034012817320,71.4102,-120.5727,-8.5445,Actual,,Calculated,32.7100,Calculated,1,10
BaySys,Amundsen,2008-04-04,01:04:59,300034012817320,71.4103,-120.5726,-2.0856,Actual,,Calculated,139.5300,Calculated,1,11
BaySys,Amundsen,2008-04-04,03:04:24,300034012817320,71.4102,-120.5727,14.7758,Actual,,Calculated,279.4400,Calculated,1,8
BaySys,Amundsen,2008-04-04,05:04:48,300034012817320,71.4103,-120.5724,7.7461,Actual,,Calculated,254.8400,Calculated,1,13
BaySys,Amundsen,2008-04-04,07:04:30,300034012817320,71.4102,-120.5727,-4.0961,Actual,,Calculated,104.8000,Calculated,1,9
BaySys,Amundsen,2008-04-04,09:05:05,300034012817320,71.4102,-120.5727,-0.5062,Actual,,Calculated,347.0200,Calculated,1,9
BaySys,Amundsen,2008-04-04,11:04:35,300034012817320,71.4103,-120.5727,5.4018,Actual,,Calculated,255.2700,Calculated,1,11
BaySys,Amundsen,2008-04-04,13:05:05,300034012817320,71.4102,-120.5727,-0.6547,Actual,,Calculated,181.4700,Calculated,1,8
BaySys,Amundsen,2008-04-04,15:04:41,300034012817320,71.4103,-120.5726,-5.9399,Actual,,Calculated,311.4300,Calculated,1,10
BaySys,Amundsen,2008-04-04,17:04:43,300034012817320,71.4160,-120.5898,-3.0849,Actual,,Calculated,311.9800,Calculated,1,10
BaySys,Amundsen,2008-04-04,19:04:42,300034012817320,71.4209,-120.6030,-1.9900,Actual,,Calculated,327.3700,Calculated,1,9
BaySys,Amundsen,2008-04-04,21:04:39,300034012817320,71.4220,-120.6060,-8.6992,Actual,,Calculated,64.3800,Calculated,1,8
BaySys,Amundsen,2008-04-04,23:05:05,300034012817320,71.4219,-120.6061,-10.0189,Actual,,Calculated,8.3300,Calculated,1,6
BaySys,Amundsen,2008-04-05,01:04:46,300034012817320,71.4223,-120.6070,4.9656,Actual,,Calculated,339.8800,Calculated,1,11
BaySys,Amundsen,2008-04-05,03:05:29,300034012817320,71.4271,-120.6206,-7.0584,Actual,,Calculated,176.8400,Calculated,1,12
BaySys,Amundsen,2008-04-05,05:04:50,300034012817320,71.4272,-120.6206,23.4269,Actual,,Calculated,294.0000,Calculated,1,11
BaySys,Amundsen,2008-04-05,07:04:53,300034012817320,71.4271,-120.6203,1.2937,Actual,,Calculated,291.4200,Calculated,1,8
BaySys,Amundsen,2008-04-05,09:04:55,300034012817320,71.4272,-120.6206,-4.8088,Actual,,Calculated,190.1400,Calculated,1,7
BaySys,Amundsen,2008-04-05,11:05:02,300034012817320,71.4271,-120.6206,7.0201,Actual,,Calculated,286.8900,Calculated,1,8
BaySys,Amundsen,2008-04-05,13:05:01,300034012817320,71.4274,-120.6210,67.3680,Actual,,Calculated,197.1000,Calculated,1,11
BaySys,Amundsen,2008-04-05,15:05:01,300034012817320,71.4272,-120.6206,-4.7520,Actual,,Calculated,198.8600,Calculated,1,11
BaySys,Amundsen,2008-04-05,17:05:05,300034012817320,71.4271,-120.6206,-5.4977,Actual,,Calculated,89.5400,Calculated,1,10
BaySys,Amundsen,2008-04-05,19:05:18,300034012817320,71.4271,-120.6206,-3.5215,Actual,,Calculated,63.1100,Calculated,1,6